STARLINK-2424, 47834

Orbit data source: Space-Track

STARLINK-2424, 47834 is a payload satellite owned by SpaceX/Seattle (US) in LEO that was launched on Thu, 11 Mar 2021 UTC via an FALCON 9 launch vehicle from the Air Force Eastern Test Range (AFETR). Payload-class satellites include a variety of spacecraft equipped with specific instruments for various scientific and technological missions. These include communications satellites like Starlink; space stations such as the ISS; scientific satellites like the Hubble; Earth observation satellites from companies like Planet Labs, Umbra, and HawkEye 360; GPS; miniature CubeSats for education and research; and military/defense satellites.

Loading next visibility...
Identifier
47834, 2021-018AZ
Orbit
LEO
Country
Flag of USUS
Related business
Manufacturer
SpaceX/Seattle
Mission
Operational Commercial Communications
Bus & Motor
STARLINK, Unknown motor
Mass
260 kg wet, ~248 kg dry
Launch date (UTC)
2021-03-11 (5 years ago)
Launch vehicle
FALCON 9
Launch site
Air Force Eastern Test Range (AFETR)
Object type
Payload
Rocket body
Debris
Shape & HBR
Box + 1 Pan, 10.1 m
Radar Cross Section
13.562 m², Large (>1 m²)

Expand to show TLE details & history
Last TLE update: 5 hours ago

TLE from 5 hours ago
0 STARLINK-2424
1 47834U 21018AZ  25292.94213566  .00002001  00000-0  15317-3 0  9997
2 47834  53.0538 163.4607 0001497 106.9073 253.2080 15.06408914255433
Epoch: 2025-10-19T22:36Z
TLE epoch observation values (Epoch: 2025-10-19T22:36:40.521Z)
Latitude
-0.00001°
Longitude
155.64029°
Altitude
548.363 km
Speed
7.589 km/s
True Right ascension
10h 53m 50s
True Declination
0° 00' 00"
Sunlit
Object was in daylight at epoch
Visualization orbit readout
Latitude
Unknown
Longitude
Unknown
Altitude
Unknown
Speed
Unknown
Apparent Right ascension
Unknown
Apparent Declination
Unknown
Sunlit
N/A
Visualization observer readout
Local Sidereal Time
22:02:24
Azimuth
Unknown
Elevation
Unknown
Doppler factor
Unknown
Orbital elements
Apogee altitude
548.492 km
Perigee altitude
546.418 km
Semi-major axis
6,925.592 km
Eccentricity
0.00015
Inclination
53.0538°
RAAN
163.4607°
Arg. of periapsis
106.9073°
True anomaly
253.19158°
Mean anomaly
253.208°
Eccentric anomaly
253.19979°
Mean motion
3.7658 °/min
Orbital period
95.6 mins
BSTAR
0.00015317
Loading maneuver chart data...
Computing Atmospheric mass density...

Documentation

Showing up to 5 results
|